[[{"header":{"parameterUnit":"m.s-1","parameterCategory":1,"la1":30.2991,"la2":30.254,"lo1":-89.0895,"lo2":-89.0444,"dy":0.0017,"dx":0.0017,"nx":28,"ny":28,"refTime":"2023-09-05T21:00:00:Z","depth":0,"parameterNumber":2,"parameterNumberName":"U-component_of_WINDS"},"data":[0,0,0,0,0,0,0,0,0,0,0,0,0,0,0,0,0,0,0,0,0,0,0,0,0,0,0,0,0,0,0,0,0,0,0,0,0,0,0,0,0,0,0,0,0,0,0,0,0,0,0,0,0,0,0,0,0,0,1.2463,1.2463,0,1.2498,1.2498,1.2498,1.2488,1.2487,1.2487,1.2486,1.2526,1.2527,1.2529,0,0,0,0,0,0,0,0,0,0,0,0,0,1.2391,1.2392,1.2463,1.2463,1.2464,1.2497,1.2498,1.2498,1.2488,1.2487,1.2486,1.2485,1.2525,1.2527,1.2529,0,0,0,0,0,0,0,0,0,0,0,0,0,1.2424,1.2393,1.2463,1.2462,1.2463,1.2497,1.2498,1.2499,1.2488,1.2487,1.2486,1.2485,1.2525,1.2527,1.253,1.2568,0,0,1.2538,1.2539,0,0,0,0,0,0,0,0,1.2422,1.2426,1.2462,1.2462,1.2463,1.2487,1.2487,1.2522,1.2489,1.2479,1.2486,1.2485,1.2514,1.2518,1.2527,1.257,1.2572,1.2538,1.254,1.2541,1.2541,0,0,0,0,0,0,0,1.242,1.2425,1.2477,1.2463,1.2463,1.2462,1.2465,1.2494,1.2502,1.248,1.2479,1.2483,1.2514,1.2524,1.2528,1.2572,1.2538,1.254,1.2542,1.2543,1.2649,1.265,0,0,0,0,0,0,1.2417,1.2423,1.2475,1.2478,1.2439,1.2464,1.2468,1.2481,1.2502,1.2504,1.2484,1.2482,1.252,1.2524,1.2529,1.2575,1.2541,1.2543,1.2545,1.2648,1.2649,1.2651,0,0,0,0,0,0,1.2415,1.2421,1.2474,1.245,1.2457,1.2466,1.2481,1.2482,1.2492,1.2505,1.2507,1.2492,1.2519,1.2525,1.2558,1.2576,1.2544,1.2547,1.2646,1.2648,1.265,1.2668,0,0,0,0,0,0,1.2413,1.2421,1.2435,1.245,1.2458,1.2502,1.2482,1.2483,1.2496,1.2494,1.2513,1.2516,1.2519,1.2554,1.2561,1.258,1.2549,1.2645,1.2647,1.2649,1.2666,1.267,1.2674,0,0,0,0,0,1.241,1.2439,1.2435,1.2442,1.2475,1.2503,1.2507,1.2509,1.2497,1.2512,1.252,1.2515,1.2573,1.2558,1.2565,1.2585,1.2644,1.2646,1.2649,1.2664,1.267,1.2674,0,0,0,0,0,0,1.2427,1.2441,1.2437,1.2472,1.2486,1.2501,1.2519,1.2515,1.2534,1.2532,1.2535,1.2539,1.2573,1.2582,1.2565,1.2623,1.2607,1.2611,1.2616,1.2621,1.2625,1.2622,1.2551,0,0,0,0,0,1.2434,1.2454,1.2466,1.2495,1.2502,1.251,1.2522,1.2522,1.2537,1.2544,1.2555,1.2571,1.2593,1.2608,1.2629,1.2667,1.2672,1.2684,1.2689,1.2692,1.2696,1.2717,1.2723,1.266,1.266,1.266,0,0,1.245,1.246,1.2473,1.2499,1.251,1.2531,1.2515,1.2538,1.2555,1.2548,1.2579,1.2588,1.2606,1.2642,1.2659,1.2651,1.2714,1.2695,1.2698,1.27,1.2721,1.2727,1.2732,1.2662,1.2661,1.2661,0,0,1.249,1.2499,1.2525,1.2536,1.2552,1.2557,1.2563,1.2578,1.2583,1.2615,1.261,1.263,1.2668,1.2681,1.2693,1.2737,1.2733,1.2744,1.2766,1.2787,1.2792,1.2796,1.2813,1.2818,1.2748,1.2748,1.2748,0,1.2508,1.2539,1.2539,1.2562,1.2574,1.2568,1.2594,1.2605,1.2628,1.2637,1.2628,1.2675,1.2687,1.2726,1.2736,1.2746,1.2754,1.2742,1.2791,1.2795,1.28,1.2815,1.2821,1.2749,1.2749,1.2749,1.2749,0,1.256,1.2582,1.2601,1.2622,1.2636,1.2661,1.2666,1.268,1.2679,1.2685,1.2717,1.2731,1.2755,1.2764,1.2764,1.2803,1.2798,1.279,1.2774,1.2807,1.2821,1.2827,1.2751,1.2751,1.275,1.275,0,0,1.2612,1.2632,1.2639,1.2648,1.2665,1.2683,1.2708,1.273,1.2742,1.2758,1.278,1.2812,1.2804,1.2818,1.2819,1.2837,1.2872,1.2827,1.2827,1.2835,1.2916,1.2922,1.2929,1.2869,1.287,1.2871,1.2915,0,1.2653,1.2696,1.2697,1.2736,1.2757,1.275,1.2772,1.2786,1.2792,1.2811,1.2819,1.2841,1.2829,1.2837,1.2855,1.2864,1.2888,1.2861,1.289,1.2891,1.2886,1.2937,1.2943,1.2984,1.2921,1.2921,1.2922,0,1.2708,1.2724,1.2765,1.2779,1.2788,1.2808,1.2828,1.2846,1.2861,1.2865,1.2879,1.2878,1.2904,1.2887,1.2924,1.2905,1.2918,1.2924,1.2926,1.2929,1.2909,1.2942,1.2997,1.3003,1.2931,1.293,1.293,0,1.2741,1.2774,1.2803,1.2811,1.2828,1.2842,1.285,1.2865,1.2878,1.2896,1.2904,1.2926,1.2937,1.2954,1.2959,1.2946,1.2997,1.2979,1.3001,1.3001,1.3012,1.3011,1.307,1.302,1.302,1.3019,1.3019,0,1.2788,1.2813,1.2818,1.2836,1.2864,1.2865,1.2894,1.2902,1.2915,1.2934,1.2931,1.295,1.2955,1.2975,1.2979,1.301,1.3015,1.3019,1.302,1.302,1.3019,1.3028,1.3025,1.3021,1.3021,1.302,1.302,0,1.283,1.2834,1.2865,1.2879,1.2883,1.2903,1.2916,1.2933,1.2939,1.2964,1.297,1.2979,1.3003,1.3009,1.3038,1.304,1.3076,1.3075,1.3071,1.3071,1.3092,1.309,1.3159,1.3168,1.3111,1.3111,1.3112,0,1.286,1.2879,1.2894,1.2907,1.2915,1.2935,1.2948,1.295,1.2964,1.2983,1.2999,1.3021,1.304,1.3078,1.3088,1.311,1.3109,1.3132,1.3112,1.3111,1.3109,1.3108,1.311,1.3135,1.3136,1.3136,1.3137,0,1.2912,1.2912,1.293,1.2949,1.2964,1.2979,1.2994,1.3005,1.3009,1.3025,1.3048,1.3062,1.3091,1.3114,1.3136,1.3146,1.3142,1.3143,1.3149,1.3149,1.3146,1.3148,1.3081,1.3141,1.3141,1.314,1.314,1.314,1.2949,1.2965,1.2979,1.2999,1.301,1.3023,1.304,1.3047,1.3066,1.3089,1.3089,1.3115,1.3131,1.3159,1.317,1.3191,1.3184,1.3193,1.3196,1.3198,1.32,1.3142,1.3195,1.3195,1.3195,1.3195,1.3195,0,1.3,1.3008,1.3027,1.3047,1.3063,1.3057,1.3073,1.3087,1.3109,1.3123,1.3141,1.3168,1.319,1.3201,1.3223,1.3238,1.3237,1.3244,1.3243,1.3245,1.3204,1.3197,1.3244,1.3244,1.3244,1.3244,1.3244,1.3244,1.3029,1.3057,1.306,1.3094,1.3102,1.3126,1.3135,1.3148,1.3159,1.3189,1.3207,1.3214,1.3227,1.325,1.327,1.3273,1.3282,1.3289,1.3291,1.3253,1.3248,1.3243,1.3236,1.3291,1.3291,1.3331,1.3331,1.3331]},{"header":{"parameterUnit":"m.s-1","parameterCategory":1,"la1":30.2991,"la2":30.254,"lo1":-89.0895,"lo2":-89.0444,"dy":0.0017,"dx":0.0017,"nx":28,"ny":28,"refTime":"2023-09-05T21:00:00:Z","depth":0,"parameterNumber":3,"parameterNumberName":"V-component_of_WINDS"},"data":[0,0,0,0,0,0,0,0,0,0,0,0,0,0,0,0,0,0,0,0,0,0,0,0,0,0,0,0,0,0,0,0,0,0,0,0,0,0,0,0,0,0,0,0,0,0,0,0,0,0,0,0,0,0,0,0,0,0,3.1925,3.1925,0,3.193,3.193,3.193,3.1941,3.1941,3.1941,3.1941,3.1943,3.1943,3.1942,0,0,0,0,0,0,0,0,0,0,0,0,0,3.1921,3.1921,3.1925,3.1925,3.1925,3.193,3.193,3.193,3.1941,3.1941,3.1941,3.1941,3.1943,3.1943,3.1942,0,0,0,0,0,0,0,0,0,0,0,0,0,3.1924,3.1921,3.1925,3.1931,3.1932,3.193,3.193,3.193,3.1941,3.1941,3.1941,3.1942,3.1943,3.1943,3.1942,3.1934,0,0,3.1942,3.1941,0,0,0,0,0,0,0,0,3.1924,3.1924,3.193,3.1931,3.1932,3.1935,3.1929,3.1931,3.194,3.1937,3.1941,3.1942,3.194,3.194,3.194,3.1934,3.1934,3.1942,3.1941,3.1941,3.1941,0,0,0,0,0,0,0,3.1923,3.1924,3.1927,3.193,3.1931,3.1932,3.1933,3.1929,3.1936,3.1937,3.1938,3.1939,3.194,3.194,3.194,3.1934,3.1942,3.1941,3.1941,3.1941,3.1918,3.1918,0,0,0,0,0,0,3.1923,3.1923,3.1927,3.1927,3.1928,3.1932,3.1933,3.1934,3.1936,3.1937,3.1939,3.1939,3.194,3.194,3.194,3.1928,3.1941,3.1941,3.1941,3.1918,3.1918,3.1917,0,0,0,0,0,0,3.1923,3.1923,3.1927,3.1925,3.1926,3.1932,3.1932,3.1933,3.1933,3.1937,3.1938,3.1937,3.1941,3.194,3.1935,3.1929,3.1941,3.1941,3.1919,3.1918,3.1918,3.1906,0,0,0,0,0,0,3.1923,3.1923,3.1921,3.1925,3.1926,3.1923,3.1932,3.1933,3.1933,3.1934,3.1937,3.1937,3.1941,3.1935,3.1935,3.1928,3.194,3.192,3.1919,3.1918,3.1907,3.1905,3.1903,0,0,0,0,0,3.1922,3.1918,3.1921,3.1921,3.1924,3.1923,3.1923,3.1928,3.1933,3.193,3.1932,3.1937,3.1929,3.1935,3.1934,3.1928,3.192,3.1919,3.1918,3.1908,3.1905,3.1903,0,0,0,0,0,0,3.1912,3.1918,3.1922,3.1919,3.192,3.1925,3.1922,3.1926,3.1925,3.1926,3.1931,3.1932,3.1925,3.1926,3.1931,3.1918,3.1925,3.1924,3.1918,3.1915,3.1914,3.1913,3.194,0,0,0,0,0,3.1909,3.1909,3.1914,3.1911,3.1911,3.1916,3.1916,3.1919,3.192,3.1921,3.1923,3.1922,3.1919,3.1918,3.1915,3.1907,3.1906,3.1902,3.19,3.1899,3.1897,3.189,3.1888,3.1914,3.1914,3.1914,0,0,3.1904,3.1907,3.1907,3.1909,3.191,3.1908,3.1917,3.1914,3.1912,3.192,3.1915,3.1916,3.1916,3.1908,3.1905,3.1908,3.189,3.1897,3.1896,3.1896,3.1889,3.1886,3.1884,3.1913,3.1914,3.1914,0,0,3.1893,3.1896,3.1893,3.1894,3.1896,3.1899,3.1898,3.1901,3.1902,3.1897,3.1902,3.1898,3.1894,3.1893,3.1892,3.1877,3.1881,3.1876,3.1866,3.1859,3.1857,3.1855,3.1848,3.1846,3.1875,3.1875,3.1875,0,3.1886,3.1884,3.189,3.1887,3.1887,3.1894,3.1889,3.1889,3.189,3.1889,3.1893,3.1886,3.1887,3.1878,3.1874,3.1873,3.187,3.1876,3.1857,3.1855,3.1854,3.1847,3.1844,3.1874,3.1874,3.1874,3.1874,0,3.1874,3.1872,3.1869,3.187,3.1869,3.1865,3.1869,3.1866,3.1869,3.1871,3.1864,3.1865,3.1861,3.186,3.1863,3.185,3.1852,3.1857,3.1864,3.185,3.1844,3.1841,3.1873,3.1873,3.1874,3.1874,0,0,3.1858,3.1861,3.1859,3.1859,3.186,3.1858,3.1853,3.1851,3.1848,3.1847,3.1842,3.1837,3.184,3.1839,3.1841,3.1835,3.182,3.184,3.184,3.1835,3.1803,3.1799,3.1796,3.1823,3.1822,3.1822,3.1803,0,3.1846,3.184,3.1844,3.1836,3.1833,3.1838,3.1833,3.1832,3.1833,3.1829,3.1829,3.1825,3.1831,3.183,3.1824,3.1824,3.1814,3.1825,3.1816,3.1815,3.1815,3.1793,3.1789,3.1771,3.18,3.18,3.18,0,3.1833,3.1832,3.1823,3.1823,3.1822,3.1818,3.1814,3.1811,3.1809,3.1809,3.1807,3.181,3.1802,3.1809,3.1798,3.1805,3.1801,3.18,3.1799,3.1798,3.1806,3.179,3.1766,3.1762,3.1796,3.1796,3.1797,0,3.182,3.1816,3.181,3.181,3.181,3.1806,3.1805,3.1804,3.1801,3.1797,3.1795,3.179,3.1787,3.1782,3.1782,3.1788,3.1769,3.1778,3.1768,3.1768,3.1763,3.1764,3.1737,3.1763,3.1763,3.1763,3.1763,0,3.1807,3.1801,3.1804,3.18,3.1793,3.1796,3.1788,3.1788,3.1786,3.178,3.1784,3.1778,3.178,3.1773,3.1773,3.1762,3.1761,3.176,3.1759,3.1759,3.1759,3.1756,3.1757,3.1762,3.1762,3.1762,3.1762,0,3.1792,3.1794,3.1787,3.1787,3.1787,3.1781,3.178,3.1775,3.1775,3.1767,3.1766,3.1765,3.1758,3.1757,3.1749,3.1748,3.1734,3.1736,3.1735,3.1735,3.1724,3.1725,3.1694,3.1689,3.1719,3.1719,3.1719,0,3.1783,3.1778,3.1777,3.1774,3.1773,3.1768,3.1765,3.1767,3.1764,3.1759,3.1754,3.1747,3.1741,3.1727,3.1725,3.1717,3.1718,3.1708,3.1717,3.1715,3.1716,3.1716,3.1714,3.1706,3.1706,3.1705,3.1705,0,3.1766,3.1767,3.1763,3.1759,3.1755,3.1751,3.1748,3.1745,3.1746,3.1741,3.1733,3.1729,3.1719,3.171,3.1702,3.1699,3.1701,3.1702,3.1699,3.1698,3.1697,3.1695,3.1729,3.1703,3.1703,3.1703,3.1703,3.1704,3.1753,3.1748,3.1746,3.1741,3.1738,3.1734,3.1729,3.1728,3.1722,3.1715,3.1716,3.1706,3.17,3.169,3.1686,3.1677,3.168,3.1676,3.1675,3.1674,3.1672,3.1699,3.1676,3.1676,3.1676,3.1676,3.1676,0,3.1735,3.1733,3.1729,3.1724,3.1718,3.1722,3.1717,3.1712,3.1704,3.1699,3.1693,3.1682,3.1673,3.1669,3.166,3.1653,3.1653,3.165,3.165,3.1649,3.1671,3.1673,3.165,3.165,3.165,3.165,3.165,3.165,3.1725,3.1717,3.1717,3.1705,3.1703,3.1695,3.1692,3.1687,3.1683,3.1671,3.1664,3.1662,3.1656,3.1645,3.1636,3.1635,3.163,3.1626,3.1625,3.1645,3.1648,3.165,3.1653,3.1626,3.1626,3.1604,3.1604,3.1604]}]]